Voltar ao catálogo

STARLINK-32692

AtivoComunicaçõesVLEO
NORAD 62422·PAYLOAD·🇺🇸 United States

Lançado Dec 23, 2024 de Cape Canaveral Space Force Station

Loading…

Próximas Passagens (próximas 24 horas)

TLE

AtualizadoSource: CelesTrak SupGP

Época: Sep 15, 2026, 03:26 UTC

1 62422C 24249P   26258.14354167  .00045302  00000+0  16404-2 0  2589
2 62422  43.0033 332.1022 0001718 271.1276 170.6121 15.27563959    18

Acompanhe STARLINK-32692 em tempo real com AllMySat

Download on the App Store